Location: Rooftop Observatory
(39.0308°N, 87.1711°W)
Time: 09:51:23
(UTC-05:00)

Terra - Visible Passes

Search period start: 25 May 2016 00:00
Search period end: 04 June 2016 00:00
Orbit: 701 x 703 km, 98.2° (Epoch: 25 May)

Date Brightness Start Highest point End Pass type
(mag) Time Alt. Az. Time Alt. Az. Time Alt. Az.
25 May 3.1 21:56:20 22° E 21:57:37 25° ENE 22:01:30 10° NNE visible
25 May 3.0 23:35:13 32° W 23:35:13 32° W 23:39:28 10° NNW visible
26 May 1.8 22:39:33 60° ESE 22:40:10 68° ENE 22:44:54 10° N visible
27 May 4.3 00:18:26 11° W 00:18:26 11° W 00:19:54 10° WNW visible
27 May 3.5 21:43:54 16° E 21:45:33 19° ENE 21:48:54 10° NNE visible
27 May 2.5 23:22:47 43° WSW 23:22:57 43° W 23:27:29 10° NNW visible
28 May 2.1 22:27:07 44° ESE 22:28:00 50° ENE 22:32:36 10° N visible
29 May 4.0 00:06:00 16° W 00:06:00 16° W 00:08:51 10° NW visible
29 May 3.8 21:31:28 12° E 21:33:29 15° ENE 21:36:08 10° NNE visible
29 May 2.0 23:10:21 56° WSW 23:10:43 58° W 23:15:26 10° NNW visible
30 May 2.6 22:14:42 32° ESE 22:15:52 38° ENE 22:20:15 10° N visible
30 May 3.6 23:53:35 21° W 23:53:42 21° W 23:57:17 10° NW visible
31 May 4.0 21:20:02 10° E 21:21:27 11° ENE 21:22:53 10° NE visible
31 May 1.7 22:57:56 67° SSW 22:58:31 78° WSW 23:03:18 10° NNW visible
01 Jun 3.0 22:02:16 24° E 22:03:45 29° ENE 22:07:49 10° N visible
01 Jun 3.2 23:41:10 28° WSW 23:41:25 28° W 23:45:29 10° NW visible
02 Jun 1.7 22:45:31 60° SE 22:46:19 78° ENE 22:51:06 10° N visible
03 Jun 3.4 21:49:52 18° E 21:51:39 22° ENE 21:55:17 10° NNE visible
03 Jun 2.8 23:28:45 36° WSW 23:29:08 37° W 23:33:33 10° NNW visible
